This is the latest recevied weather packets stored in our database for station/object XQ6AK-15. If no packets are shown the sender has not sent any weather packets the latest 10 day(s).
| Time | Temp. | Humidity | Pressure | Rain* | Wind** | Luminosity | Snow |
|---|---|---|---|---|---|---|---|
| 1787779024 | 10.56° C | 95% | 999.2 hPa | 0 mm | - | 15 W/m² | - |
| 1787778720 | 10.56° C | 93% | 999.1 hPa | 0 mm | - | 33 W/m² | - |
| 1787778416 | 10.56° C | 92% | 999.1 hPa | 0 mm | - | 65 W/m² | - |
| 1787778111 | 10.56° C | 93% | 999.1 hPa | 0 mm | - | 92 W/m² | - |
| 1787777810 | 10.56° C | 93% | 999.1 hPa | 0 mm | - | 50 W/m² | - |
| 1787777507 | 10.56° C | 93% | 999.2 hPa | 0 mm | - | 158 W/m² | - |
| 1787777201 | 10.56° C | 94% | 999.1 hPa | 0 mm | - | 52 W/m² | - |
| 1787776900 | 10.56° C | 93% | 998.8 hPa | 0 mm | - | 26 W/m² | - |
| 1787776599 | 10.56° C | 91% | 998.7 hPa | 0 mm | - | 26 W/m² | - |
| 1787776298 | 11.11° C | 90% | 998.7 hPa | 0 mm | - | 15 W/m² | - |
| 1787775997 | 11.11° C | 89% | 998.8 hPa | 0 mm | - | 16 W/m² | - |
| 1787775692 | 11.11° C | 90% | 998.7 hPa | 0 mm | - | 50 W/m² | - |
| 1787775390 | 11.11° C | 91% | 998.4 hPa | 0 mm | - | 92 W/m² | - |
| 1787775085 | 11.11° C | 91% | 998.3 hPa | 0 mm | - | 103 W/m² | - |
| 1787774785 | 10.56° C | 94% | 998.2 hPa | 0 mm | - | 113 W/m² | - |
| 1787774479 | 10.56° C | 95% | 998.1 hPa | 0 mm | - | 115 W/m² | - |
| 1787774178 | 10.56° C | 96% | 998.4 hPa | 0 mm | - | 117 W/m² | - |
| 1787773877 | 10° C | 97% | 998.4 hPa | 0 mm | - | 169 W/m² | - |
| 1787773576 | 10.56° C | 97% | 998.4 hPa | 0 mm | - | 108 W/m² | - |
| 1787773272 | 10.56° C | 98% | 998.4 hPa | 0 mm | - | 331 W/m² | - |
| 1787772967 | 10° C | 98% | 998.4 hPa | 0 mm | - | 166 W/m² | - |
| 1787772663 | 9.44° C | 99% | 998.5 hPa | 0 mm | - | 213 W/m² | - |
| 1787772361 | 9.44° C | 99% | 998.4 hPa | 0 mm | - | 229 W/m² | - |
| 1787772060 | 8.89° C | 99% | 998.5 hPa | 0 mm | - | 344 W/m² | - |
| 1787771755 | 8.89° C | 99% | 998.8 hPa | 0 mm | - | 229 W/m² | - |
* Rain latest hour (hover to see other rain measurements)
** Current wind speed in m/s (hover to see current wind gust speed)